Regional Weather Roundup
Issued by NWS

Home | Current Version | Previous Version | Text Only | Print | Product List | Glossary Off
Versions: 1 2 3 4 5 6 7 8 9 10 11 12 13 14 15 16 17 18 19 20 21 22 23 24 25 26 27 28 29 30 31 32 33 34 35 36 37 38 39 40 41 42 43 44 45 46 47 48 49 50

607
ASUS45 KCYS 160710
RWRWY

WYOMING REGIONAL WEATHER ROUNDUP
NATIONAL WEATHER SERVICE CHEYENNE WY
100 AM MDT MON OCT 16 2017

NOTE:  "FAIR" INDICATES FEW OR NO CLOUDS BELOW 12,000 FEET
WITH NO SIGNIFICANT WEATHER AND/OR OBSTRUCTIONS TO VISIBILITY.

WYZ001-160800-
YELLOWSTONE NATIONAL PARK

CITY           SKY/WX    TMP DP  RH WIND       PRES   REMARKS
LK YELLOWSTONE   N/A     24  22  91 CALM      30.46S
W YELLOWSTONE  NOT AVBL

$$
WYZ002>013-054>058-071-098>099-160800-
NORTHERN WYOMING

CITY           SKY/WX    TMP DP  RH WIND       PRES   REMARKS
JACKSON        FAIR      25  23  92 NE5       30.45S WCI  19
CODY           FAIR      51  24  34 E3        30.26F
GREYBULL       FAIR      38  27  64 E5        30.25F WCI  34
WORLAND        FAIR      32  29  88 S5        30.25F WCI  27
SHERIDAN       FAIR      30  25  81 CALM      30.19F
BUFFALO        FAIR      41  18  39 W8        30.23F
GILLETTE       FAIR      33  27  78 CALM      30.21F
HULETT         FAIR      46  27  46 SW8       30.22F
NEWCASTLE      FAIR      37  25  60 CALM      30.26F

$$
WYZ014>020-022>026-101>103-160800-
CENTRAL WYOMING

CITY           SKY/WX    TMP DP  RH WIND       PRES   REMARKS
BIG PINEY      FAIR      22  17  81 CALM      30.45F
PINEDALE       FAIR      23  21  93 NW7       30.45F WCI  15
DUBOIS         FAIR      34  21  60 NW13      30.37F WCI  25
LANDER         FAIR      37  28  70 SE3       30.30F
RIVERTON       FAIR      39  28  64 CALM      30.31F
CASPER         FAIR      45  21  38 SW14      30.29F
DOUGLAS        FAIR      32  24  72 CALM      30.29F

$$
WYZ021-027>030-104>119-160800-
SOUTHERN WYOMING

CITY           SKY/WX    TMP DP  RH WIND       PRES   REMARKS
EVANSTON       FAIR      42  14  32 S5        30.45S
KEMMERER       FAIR      30  19  64 N6        30.46S WCI  24
FORT BRIDGER   FAIR      40  12  32 W7        30.47S WCI  35
ROCK SPRINGS   FAIR      43   8  23 CALM      30.43F
DIXON          FAIR      29  18  64 SE5       30.49F WCI  24
RAWLINS        FAIR      40  11  30 S6        30.42F
SARATOGA       FAIR      30  19  64 SE6       30.44F WCI  24
LARAMIE        FAIR      40  13  33 SW13      30.41F WCI  32
CHEYENNE       FAIR      37  21  52 W6        30.38F WCI  32
TORRINGTON     FAIR      32  25  75 SE7       30.29F WCI  26
PINE BLUFFS    FAIR      34  25  69 MISG      30.37F

$$




USA.gov is the U.S. government's official web portal to all federal, state and local government web resources and services.